When you browse on this site, cookies collect data to enhance your experience and personalize the content and advertising you see.
Visit our Privacy Policy to learn more. By continuing to use the site, you agree to this use of cookies and data.
  • Em Portugal
  • Lista de países
  • Para 7 dias
  • Temperatura da água
  • Mapas de satélite
  • Mapa do tempo
  • Widgets de tempo
  • user-avatar
    Iniciar Sessão

    Previsão horária em Grzybowo

    Hoje, 25 Março, Segunda-feira

    Tempo Temperatura Precipitação Vento Pressão Humidade
    00:00 +5°C° 0 mm 1 m/s 751 mmHg 66%
    01:00 +4°C° 0 mm 2 m/s 751 mmHg 68%
    02:00 +3°C° 0 mm 2 m/s 750 mmHg 71%
    03:00 +2°C° 0 mm 2 m/s 749 mmHg 73%
    04:00 +2°C° 0 mm 2 m/s 749 mmHg 76%
    05:00 +2°C° 0 mm 2 m/s 748 mmHg 73%
    06:00 +2°C° 0 mm 2 m/s 748 mmHg 71%
    07:00 +2°C° 0 mm 2 m/s 748 mmHg 68%
    08:00 +4°C° 0 mm 2 m/s 747 mmHg 63%
    09:00 +5°C° 0 mm 2 m/s 747 mmHg 58%
    10:00 +6°C° 0 mm 2 m/s 747 mmHg 52%
    11:00 +6°C° 0.3 mm 2 m/s 747 mmHg 56%
    12:00 +6°C° 0.3 mm 2 m/s 746 mmHg 60%
    13:00 +6°C° 0.3 mm 2 m/s 746 mmHg 64%
    14:00 +6°C° 0.3 mm 2 m/s 746 mmHg 65%
    15:00 +6°C° 0.3 mm 2 m/s 746 mmHg 66%
    16:00 +6°C° 0.3 mm 2 m/s 746 mmHg 68%
    17:00 +5°C° 0.1 mm 2 m/s 747 mmHg 72%
    18:00 +3°C° 0.1 mm 3 m/s 747 mmHg 77%
    19:00 +2°C° 0.1 mm 3 m/s 748 mmHg 81%
    20:00 +2°C° 0 mm 3 m/s 748 mmHg 85%
    21:00 0°C° 0 mm 4 m/s 749 mmHg 88%
    22:00 -1°C° 0 mm 4 m/s 750 mmHg 91%
    23:00 0°C° 0 mm 4 m/s 750 mmHg 90%

    Amanhã, 26 Março, Terça-feira

    Tempo Temperatura Precipitação Vento Pressão Humidade
    00:00 0°C° 0 mm 4 m/s 751 mmHg 89%
    01:00 0°C° 0 mm 4 m/s 751 mmHg 87%
    02:00 -1°C° 0 mm 4 m/s 752 mmHg 88%
    03:00 -1°C° 0 mm 4 m/s 752 mmHg 88%
    04:00 -2°C° 0 mm 4 m/s 752 mmHg 89%
    05:00 -2°C° 0 mm 4 m/s 752 mmHg 85%
    06:00 -2°C° 0 mm 4 m/s 753 mmHg 81%
    07:00 -2°C° 0 mm 4 m/s 753 mmHg 77%
    08:00 0°C° 0 mm 5 m/s 752 mmHg 73%
    09:00 +2°C° 0 mm 6 m/s 752 mmHg 70%
    10:00 +4°C° 0 mm 8 m/s 752 mmHg 66%
    11:00 +4°C° 0.2 mm 8 m/s 751 mmHg 64%
    12:00 +5°C° 0.2 mm 9 m/s 751 mmHg 62%
    13:00 +5°C° 0.2 mm 9 m/s 751 mmHg 60%
    14:00 +3°C° 0.1 mm 9 m/s 751 mmHg 62%
    15:00 +3°C° 0.1 mm 9 m/s 751 mmHg 64%
    16:00 +2°C° 0.1 mm 9 m/s 751 mmHg 66%
    17:00 +1°C° 0.1 mm 8 m/s 751 mmHg 67%
    18:00 -1°C° 0.1 mm 7 m/s 752 mmHg 69%
    19:00 -2°C° 0.1 mm 6 m/s 753 mmHg 70%
    20:00 -2°C° 0 mm 5 m/s 753 mmHg 71%
    21:00 -3°C° 0 mm 4 m/s 754 mmHg 71%
    22:00 -2°C° 0 mm 3 m/s 755 mmHg 71%
    23:00 -4°C° 0 mm 3 m/s 755 mmHg 72%

    Depois de amanhã, 27 Março, Quarta-feira

    Tempo Temperatura Precipitação Vento Pressão Humidade
    00:00 -4°C° 0 mm 3 m/s 756 mmHg 72%
    01:00 -4°C° 0 mm 3 m/s 756 mmHg 73%
    02:00 -4°C° 0 mm 3 m/s 757 mmHg 73%
    03:00 -4°C° 0 mm 3 m/s 757 mmHg 73%
    04:00 -4°C° 0 mm 3 m/s 757 mmHg 72%
    05:00 -2°C° 0 mm 2 m/s 758 mmHg 69%
    06:00 -2°C° 0 mm 2 m/s 758 mmHg 65%
    07:00 -1°C° 0 mm 2 m/s 758 mmHg 61%
    08:00 +2°C° 0 mm 2 m/s 758 mmHg 54%
    09:00 +3°C° 0 mm 2 m/s 759 mmHg 47%
    10:00 +4°C° 0 mm 3 m/s 759 mmHg 40%
    11:00 +5°C° 0 mm 3 m/s 759 mmHg 42%
    12:00 +7°C° 0 mm 3 m/s 759 mmHg 43%
    13:00 +7°C° 0 mm 4 m/s 759 mmHg 45%
    14:00 +7°C° 0 mm 4 m/s 759 mmHg 50%
    15:00 +7°C° 0 mm 4 m/s 759 mmHg 56%
    16:00 +7°C° 0 mm 4 m/s 758 mmHg 61%
    17:00 +7°C° 0 mm 3 m/s 759 mmHg 68%
    18:00 +6°C° 0 mm 2 m/s 759 mmHg 75%
    19:00 +5°C° 0 mm 2 m/s 759 mmHg 83%
    20:00 +5°C° 0 mm 2 m/s 759 mmHg 85%
    21:00 +4°C° 0 mm 2 m/s 760 mmHg 88%
    22:00 +4°C° 0 mm 2 m/s 760 mmHg 91%
    23:00 +4°C° 0 mm 2 m/s 760 mmHg 91%

    28 Março, Quinta-feira

    Tempo Temperatura Precipitação Vento Pressão Humidade
    00:00 +4°C° 0 mm 2 m/s 760 mmHg 91%
    01:00 +4°C° 0 mm 2 m/s 761 mmHg 91%
    02:00 +4°C° 0.1 mm 2 m/s 761 mmHg 93%
    03:00 +4°C° 0.1 mm 2 m/s 761 mmHg 94%
    04:00 +4°C° 0.1 mm 2 m/s 761 mmHg 95%
    05:00 +5°C° 0.1 mm 2 m/s 761 mmHg 95%
    06:00 +6°C° 0.1 mm 1 m/s 761 mmHg 94%
    07:00 +6°C° 0.1 mm 1 m/s 762 mmHg 94%
    08:00 +7°C° 0 mm 1 m/s 762 mmHg 88%
    09:00 +8°C° 0 mm 1 m/s 762 mmHg 82%
    10:00 +10°C° 0 mm 1 m/s 763 mmHg 76%
    11:00 +10°C° 0 mm 1 m/s 763 mmHg 71%
    12:00 +10°C° 0 mm 0 m/s 763 mmHg 66%
    13:00 +11°C° 0 mm 0 m/s 763 mmHg 61%
    14:00 +11°C° 0 mm 0 m/s 763 mmHg 60%
    15:00 +11°C° 0 mm 0 m/s 763 mmHg 59%
    16:00 +11°C° 0 mm 0 m/s 763 mmHg 59%
    17:00 +10°C° 0 mm 0 m/s 763 mmHg 64%
    18:00 +9°C° 0 mm 0 m/s 763 mmHg 70%
    19:00 +7°C° 0 mm 0 m/s 763 mmHg 75%
    20:00 +8°C° 0 mm 1 m/s 763 mmHg 78%
    21:00 +7°C° 0 mm 1 m/s 764 mmHg 81%
    22:00 +7°C° 0 mm 1 m/s 764 mmHg 84%
    23:00 +6°C° 0 mm 1 m/s 764 mmHg 86%

    29 Março, Sexta-feira

    Tempo Temperatura Precipitação Vento Pressão Humidade
    00:00 +6°C° 0 mm 1 m/s 764 mmHg 87%
    01:00 +5°C° 0 mm 2 m/s 764 mmHg 89%
    02:00 +5°C° 0 mm 2 m/s 764 mmHg 89%
    03:00 +4°C° 0 mm 2 m/s 764 mmHg 90%
    04:00 +4°C° 0 mm 2 m/s 764 mmHg 90%
    05:00 +5°C° 0 mm 2 m/s 764 mmHg 88%
    06:00 +6°C° 0 mm 1 m/s 764 mmHg 85%
    07:00 +7°C° 0 mm 1 m/s 764 mmHg 83%
    08:00 +8°C° 0 mm 2 m/s 764 mmHg 76%
    09:00 +10°C° 0 mm 2 m/s 764 mmHg 68%
    10:00 +11°C° 0 mm 3 m/s 764 mmHg 61%
    11:00 +12°C° 0 mm 3 m/s 763 mmHg 57%
    12:00 +13°C° 0 mm 3 m/s 763 mmHg 53%
    13:00 +14°C° 0 mm 4 m/s 763 mmHg 49%
    14:00 +14°C° 0 mm 4 m/s 762 mmHg 50%
    15:00 +14°C° 0 mm 4 m/s 762 mmHg 51%
    16:00 +13°C° 0 mm 4 m/s 761 mmHg 51%
    17:00 +12°C° 0 mm 3 m/s 761 mmHg 57%
    18:00 +10°C° 0 mm 3 m/s 761 mmHg 63%
    19:00 +9°C° 0 mm 2 m/s 761 mmHg 69%
    20:00 +8°C° 0 mm 2 m/s 761 mmHg 72%
    21:00 +8°C° 0 mm 2 m/s 761 mmHg 75%
    22:00 +7°C° 0 mm 2 m/s 761 mmHg 78%
    23:00 +7°C° 0 mm 2 m/s 761 mmHg 80%

    30 Março, Sábado

    Tempo Temperatura Precipitação Vento Pressão Humidade
    00:00 +6°C° 0 mm 2 m/s 760 mmHg 82%
    01:00 +7°C° 0 mm 1 m/s 760 mmHg 84%
    02:00 +5°C° 0 mm 2 m/s 760 mmHg 86%
    03:00 +5°C° 0 mm 2 m/s 760 mmHg 87%
    04:00 +5°C° 0 mm 2 m/s 759 mmHg 89%
    05:00 +4°C° 0 mm 3 m/s 759 mmHg 86%
    06:00 +5°C° 0 mm 3 m/s 759 mmHg 82%
    07:00 +7°C° 0 mm 3 m/s 759 mmHg 79%
    08:00 +7°C° 0 mm 4 m/s 759 mmHg 72%
    09:00 +10°C° 0 mm 4 m/s 758 mmHg 64%
    10:00 +12°C° 0 mm 5 m/s 758 mmHg 57%
    11:00 +12°C° 0 mm 5 m/s 758 mmHg 55%
    12:00 +13°C° 0 mm 5 m/s 757 mmHg 53%
    13:00 +14°C° 0 mm 5 m/s 756 mmHg 51%
    14:00 +13°C° 0 mm 5 m/s 756 mmHg 52%
    15:00 +13°C° 0 mm 5 m/s 755 mmHg 53%
    16:00 +13°C° 0 mm 5 m/s 755 mmHg 55%
    17:00 +12°C° 0 mm 4 m/s 754 mmHg 57%
    18:00 +11°C° 0 mm 4 m/s 754 mmHg 60%
    19:00 +11°C° 0 mm 3 m/s 754 mmHg 62%
    20:00 +10°C° 0 mm 3 m/s 754 mmHg 64%
    21:00 +10°C° 0 mm 3 m/s 753 mmHg 66%
    22:00 +9°C° 0 mm 3 m/s 753 mmHg 67%
    23:00 +9°C° 0 mm 3 m/s 753 mmHg 70%
    Mostrar mais